Hourly Data Report for October 08, 2016

TORONTO CITY
ONTARIO

43°40'00.000" N
79°24'00.000" W
112.50 m
6158355
71508
XTO

Download Data

Hourly Data (October 2016)
Hourly Data Report for October 8, 2016
TIME
LST
Temp Definition
°C
Dew Point Definition
°C
Rel Hum Definition
%
Precip. Amount Definition
mm

Wind Dir Definition
10's deg

Wind Spd Definition
km/h
Visibility Definition
km
Stn Press Definition
kPa
Hmdx Definition


Wind Chill Definition


Weather Definition


00:00 18.4 14.3 77 0.0 LegendMM LegendMM   100.16     LegendNANA
01:00 18.2 15.0 82 0.0 LegendMM LegendMM   100.13     LegendNANA
02:00 19.5 16.6 83 0.0 LegendMM LegendMM   100.13     LegendNANA
03:00 19.0 15.6 81 0.0 LegendMM LegendMM   100.14     LegendNANA
04:00 19.1 15.9 81 0.0 LegendMM LegendMM   100.12     LegendNANA
05:00 18.0 14.0 78 0.0 LegendMM LegendMM   100.13     LegendNANA
06:00 16.5 12.9 79 0.0 LegendMM LegendMM   100.19     LegendNANA
07:00 15.1 12.5 84 0.0 LegendMM LegendMM   100.29     LegendNANA
08:00 14.0 11.9 87 2.5 LegendMM LegendMM   100.35     LegendNANA
09:00 13.7 10.1 79 0.0 LegendMM LegendMM   100.37     LegendNANA
10:00 15.7 9.4 66 0.2 LegendMM LegendMM   100.36     LegendNANA
11:00 16.4 7.8 57 0.0 LegendMM LegendMM   100.37     LegendNANA
12:00 18.1 7.4 50 0.0 LegendMM LegendMM   100.38     LegendNANA
13:00 18.4 5.1 41 0.0 LegendMM LegendMM   100.33     LegendNANA
14:00 17.9 4.6 41 0.0 LegendMM LegendMM   100.30     LegendNANA
15:00 16.9 4.7 44 0.0 LegendMM LegendMM   100.33     LegendNANA
16:00 15.1 2.9 44 0.0 LegendMM LegendMM   100.42     LegendNANA
17:00 14.2 3.0 47 0.0 LegendMM LegendMM   100.49     LegendNANA
18:00 13.2 2.5 48 0.0 LegendMM LegendMM   100.56     LegendNANA
19:00 12.7 2.9 51 0.0 LegendMM LegendMM   100.65     LegendNANA
20:00 12.2 3.9 57 0.0 LegendMM LegendMM   100.73     LegendNANA
21:00 11.0 3.6 60 0.0 LegendMM LegendMM   100.79     LegendNANA
22:00 10.5 4.1 65 0.0 LegendMM LegendMM   100.83     LegendNANA
23:00 10.1 4.2 67 0.0 LegendMM LegendMM   100.81     LegendNANA

Notes on Data Quality.

Legend

  • E = Estimated
  • M = Missing
  • NA = Not Available*
  • [empty] = Indicates an unobserved value
Date modified: